Regional Weather Roundup
Issued by NWS

Home | Current Version | Previous Version | Text Only | Print | Product List | Glossary Off
Versions: 1 2 3 4 5 6 7 8 9 10 11 12 13 14 15 16 17 18 19 20 21 22 23 24 25 26 27 28 29 30 31 32 33 34 35 36 37 38 39 40 41 42 43 44 45 46 47 48 49 50

599
ASUS45 KBOU 191207
RWRCO

WEATHER ROUNDUP FOR COLORADO
NATIONAL WEATHER SERVICE DENVER/BOULDER CO
500 AM MST SUN FEB 19 2017

NOTE: "FAIR" INDICATES FEW OR NO CLOUDS BELOW 12000 FEET WITH NO
SIGNIFICANT WEATHER AND/OR OBSTRUCTIONS TO VISIBILITY.

COZ001>005-013-030-031-191300-
...NORTHWEST COLORADO...

CITY           SKY/WX    TMP DP  RH WIND       PRES   REMARKS
CRAIG          CLOUDY    29  26  89 CALM      29.76R
HAYDEN         MOCLDY    30  25  80 E10       29.76S WCI  21
MEEKER         CLOUDY    30  28  92 CALM      29.76R
MOUNT WERNER   NOT AVBL
STEAMBOAT SPGS NOT AVBL
WALDEN         NOT AVBL
$$

COZ006>008-011-191300-
...WEST CENTRAL VALLEYS...

CITY           SKY/WX    TMP DP  RH WIND       PRES   REMARKS
GRAND JUNCTION MOCLDY    38  36  92 E7        29.71F
MONTROSE       FAIR      29  28  96 SE3       29.76F
EAGLE          FAIR      27  25  92 CALM      29.81R
RIFLE          FAIR      30  28  92 CALM      29.76S
DELTA          MOCLDY    34  32  91 CALM      29.74F
NUCLA          FAIR      34  32  93 E5        29.75F WCI  30
$$

COZ017>023-064>068-191300-
...SOUTHWEST COLORADO...

CITY           SKY/WX    TMP DP  RH WIND       PRES   REMARKS
DURANGO        CLOUDY    39  28  64 VRB7      29.79R
CORTEZ         CLOUDY    46  30  53 SE18      29.75R
PAGOSA SPRINGS FLURRIES  40  28  61 S8G21     29.85R
TELLURIDE      FAIR      37  19  49 CALM      29.79F
WOLF CREEK PAS LGT SNOW  21  19  93 S25G35    29.92S WCI   4
$$

COZ009-010-012-014-032>034-037-058>063-191300-
...CENTRAL COLORADO...

CITY           SKY/WX    TMP DP  RH WIND       PRES   REMARKS
ASPEN          FAIR      27  23  85 S5        29.77S WCI  22
BUENA VISTA    FAIR      38  25  58 S15G25    29.81R
COPPER MTN     FAIR      28  14  54 S18       29.88S WCI  16
BERTHOUD PASS  FAIR      21  12  68 W23       29.86S WCI   5
COTTONWOOD PAS FAIR      34  23  64 SE7       29.85R WCI  28
GUNNISON       FAIR      19  17  92 CALM      29.80F
KREMMLING      FAIR      30  27  86 CALM      29.81S
LEADVILLE      FAIR      27  19  72 CALM      29.81S
MONARCH PASS   FAIR      23  19  86 S18       29.99F WCI   9
SALIDA         FAIR      43  25  48 E3        29.88S
SUNLIGHT       NOT AVBL
WILKERSON PASS FAIR      28  19  69 SW17G25   29.87F WCI  16
$$

COZ069>075-191300-
...SAN LUIS VALLEY/SANGRE DE CRISTO MOUNTAINS...

CITY           SKY/WX    TMP DP  RH WIND       PRES   REMARKS
ALAMOSA        FAIR      33  27  78 E8        29.82F WCI  26
LA VETA PASS   FAIR      32  23  69 NE23G33   29.86R WCI  19
SAGUACHE       FAIR      30  27  86 CALM      29.84F
$$

COZ035-036-038>040-191300-
...NORTHERN COLORADO FRONT RANGE...

CITY           SKY/WX    TMP DP  RH WIND       PRES   REMARKS
DENVER INTL AP FAIR      47  23  38 S22       29.66R
DMNS CITY PARK   N/A     40  24  51 NW2       29.66R
AURORA         PTCLDY    43  23  46 S15       29.68R
FRONT RANGE AP FAIR      43  27  52 S12       29.68R
ERIE MUNI ARPT FAIR      31  24  76 CALM      29.67R
BOULDER MUN AP FAIR      39  25  56 SW5       29.66R
CENTENNIAL     FAIR      46  24  42 S10       29.69R
BROOMFIELD     FAIR      41  23  48 CALM      29.68R
FORT COLLINS   FAIR      38  24  57 CALM      29.67R
LONGMONT       FAIR      35  25  66 CALM      29.68R
$$

COZ041-046-047-076>085-087-088-191300-
...PIKES PEAK/PALMER DIVIDE AND SOUTHERN FOOTHILLS...

CITY           SKY/WX    TMP DP  RH WIND       PRES   REMARKS
COLO. SPRINGS  MOCLDY    34  22  61 N9        29.73S WCI  27
A. F. ACADEMY  FAIR      29  20  70 N10       29.72S WCI  19
SCHRIEVER AFB  FAIR      38  24  57 NE6       29.73F
ELLICOTT       FAIR     N/A N/A N/A SE12      29.71F
FALCON         NOT AVBL
FORT CARSON    FAIR      36  22  55 N8        29.70F
LIMON          FAIR      42  28  57 SE13      29.72S
MONUMENT HILL  FAIR      34  23  64 S9        29.75S WCI  26
TRINIDAD       FAIR      53  25  33 W5G28     29.74S
$$

COZ042>045-048>051-090-091-191300-
...NORTHEAST COLORADO...

CITY           SKY/WX    TMP DP  RH WIND       PRES   REMARKS
GREELEY ARPT   FAIR      32  22  66 CALM      29.68R
AKRON          FAIR      48  27  44 S13       29.64S
BURLINGTON     FAIR      49  34  56 S21       29.68S
WRAY           NOT AVBL
STERLING       FAIR      34  25  69 W5        29.64R WCI  30
HOLYOKE        FAIR      37  30  75 S6        29.66R
FORT MORGAN    FAIR      34  23  62 NW8       29.66R WCI  28
$$

COZ086-089-092>099-191300-
...SOUTHEAST COLORADO...

CITY           SKY/WX    TMP DP  RH WIND       PRES   REMARKS
PUEBLO         FAIR      30  22  72 CALM      29.69R
LA JUNTA       FAIR      51  31  46 W6        29.71R
LAMAR          FAIR      49  34  56 S13       29.72S
SPRINGFIELD      N/A     47  35  63 S10       29.75S
$$




USA.gov is the U.S. government's official web portal to all federal, state and local government web resources and services.